Regional Weather Roundup
Issued by NWS

Home | Current Version | Previous Version | Graphics & Text | Print | Product List | Glossary On
Versions: 1 2 3 4 5 6 7 8 9 10 11 12 13 14 15 16 17 18 19 20 21 22 23 24 25 26 27
000
ASUS45 KBOU 221306
RWRCO

WEATHER ROUNDUP FOR COLORADO
NATIONAL WEATHER SERVICE DENVER/BOULDER CO
700 AM MDT TUE APR 22 2014

NOTE: "FAIR" INDICATES FEW OR NO CLOUDS BELOW 12000 FEET WITH NO
SIGNIFICANT WEATHER AND/OR OBSTRUCTIONS TO VISIBILITY.

COZ001>005-013-030-031-221400-
...NORTHWEST COLORADO...

CITY           SKY/WX    TMP DP  RH WIND       PRES   REMARKS
CRAIG          CLOUDY    39  32  76 CALM      30.02S
HAYDEN         CLOUDY    43  28  56 E12       30.06R
MEEKER         PTCLDY    41  32  70 NE5       30.02F
MOUNT WERNER   CLOUDY    43  19  39 SE17G24   30.23S
STEAMBOAT SPGS CLOUDY    37  27  67 CALM      30.07S
WALDEN         MOCLDY    34  27  75 E6        30.13S WCI  29
$$

COZ006>008-011-221400-
...WEST CENTRAL VALLEYS...

CITY           SKY/WX    TMP DP  RH WIND       PRES   REMARKS
GRAND JUNCTION PTCLDY    54  30  40 E18G31    29.96S
MONTROSE       PTCLDY    47  30  51 S6        30.07S
EAGLE          PTCLDY    34  28  80 CALM      30.17R
RIFLE          PTCLDY    42  32  67 W5        30.04S
DELTA          NOT AVBL
NUCLA          NOT AVBL
$$

COZ017>023-064>068-221400-
...SOUTHWEST COLORADO...

CITY           SKY/WX    TMP DP  RH WIND       PRES   REMARKS
DURANGO        CLOUDY    40  26  57 CALM      30.16F
CORTEZ         MOCLDY    49  30  48 N3        30.09F
PAGOSA SPRINGS MOCLDY    40  26  56 CALM      30.23R
TELLURIDE      PTCLDY    46  25  42 CALM      30.23S
WOLF CREEK PAS MOCLDY    32  27  80 SW14G22   30.38F WCI  22
$$

COZ009-010-012-014-032>034-037-058>063-221400-
...CENTRAL COLORADO...

CITY           SKY/WX    TMP DP  RH WIND       PRES   REMARKS
ASPEN          PTCLDY    42  27  55 SW7       30.14S
BUENA VISTA    CLEAR     34  29  82 NW5       30.23S WCI  30
COPPER MTN     CLEAR     37  21  52 S20       30.35S
BERTHOUD PASS  FAIR      32  23  69 W25G39    30.33F WCI  19
COTTONWOOD PAS CLEAR     41  32  70 CALM      30.28R
GUNNISON       PTCLDY    28  21  74 CALM      30.26S
KREMMLING      MOCLDY    30  27  86 CALM      30.19R
LEADVILLE      CLEAR     25  22  88 CALM      30.26S
MONARCH PASS   CLOUDY    32  23  69 SW17      30.46S WCI  21
SALIDA         CLEAR     39  31  73 CALM      30.29S
SUNLIGHT       CLOUDY    39  28  65 CALM      30.27F
WILKERSON PASS MOCLDY    32  28  86 SW12G21   30.32S WCI  23
$$

COZ069>075-221400-
...SAN LUIS VALLEY/SANGRE DE CRISTO MOUNTAINS...

CITY           SKY/WX    TMP DP  RH WIND       PRES   REMARKS
ALAMOSA        PTCLDY    35  31  85 CALM      30.22S
LA VETA PASS   PTCLDY    36  32  87 SW12G23   30.29S
SAGUACHE       PTCLDY    39  27  60 NW8       30.24S
$$

COZ035-036-038>040-221400-
...NORTHERN COLORADO FRONT RANGE...

CITY           SKY/WX    TMP DP  RH WIND       PRES   REMARKS
DENVER INTL AP MOCLDY    51  37  58 SW7       30.02F
DMNS CITY PARK   N/A     51  35  53 SE1       30.01F
AURORA         PTCLDY    50  37  62 S20       30.03S
FRONT RANGE AP NOT AVBL
ERIE MUNI ARPT MOCLDY    42  38  84 CALM      30.02S
BOULDER MUN AP MOCLDY    45  36  70 CALM      30.01S
CENTENNIAL     MOCLDY    47  35  63 SE8       30.05F
BROOMFIELD     MOCLDY    45  36  70 CALM      30.03F
FORT COLLINS   CLOUDY    43  36  75 N5        30.03S
LONGMONT       NOT AVBL
$$

COZ041-046-047-076>085-087-088-221400-
...PIKES PEAK/PALMER DIVIDE AND SOUTHERN FOOTHILLS...

CITY           SKY/WX    TMP DP  RH WIND       PRES   REMARKS
COLO. SPRINGS  PTCLDY    40  35  83 N6        30.12F
A. F. ACADEMY  PTCLDY    36  33  88 N8        30.13F
ELLICOTT       NOT AVBL
FALCON         PTCLDY    39  37  92 NW3       30.14F
FORT CARSON    PTCLDY    41  34  74 N5        30.11S
LIMON          CLEAR     39  33  79 SE9       30.11F
MONUMENT HILL  PTCLDY    43  37  81 S9        30.11S
TRINIDAD       PTCLDY    55  40  56 SW18      30.12F
$$

COZ042>045-048>051-090-091-221400-
...NORTHEAST COLORADO...

CITY           SKY/WX    TMP DP  RH WIND       PRES   REMARKS
GREELEY ARPT   MOCLDY    37  30  75 W3        30.03R
AKRON          PTCLDY    45  33  63 S14       30.05F
BURLINGTON     SUNNY     48  29  47 S21       30.12S
WRAY           SUNNY     49  32  51 S9        30.10S
STERLING       NOT AVBL
HOLYOKE        NOT AVBL
FORT MORGAN    NOT AVBL
$$

COZ086-089-092>099-221400-
...SOUTHEAST COLORADO...

CITY           SKY/WX    TMP DP  RH WIND       PRES   REMARKS
PUEBLO         CLEAR     43  37  79 CALM      30.08F
LA JUNTA       CLEAR     49  42  77 E7        30.08S
LAMAR          CLEAR     54  35  48 SE15      30.10F
SPRINGFIELD      N/A     49  45  86 S12       30.16S
$$



USA.gov is the U.S. government's official web portal to all federal, state and local government web resources and services.